period_start,C,m1,H,J0,J1,J2,J3,J4,J5,JA,JB,JC,JD,JJ,JK,JN,#
2016-04-04 00:03:13,0.30,3.74,0.00,11.65,16.43,20.59,15.21,51.10,1008.32,2075.96,2295.39,2310.50,2621.35,599.93,614.66,19.21,0000 0000 0000 0000 000000
2016-04-04 00:08:14,0.31,3.76,0.00,11.70,16.44,20.63,15.14,51.07,1008.32,2075.94,2291.30,2307.71,2618.20,599.87,614.43,19.26,0000 0000 0000 0000 000000
2016-04-04 00:13:15,0.31,3.77,0.00,11.73,16.47,20.62,15.08,51.06,1008.33,2075.76,2286.82,2304.70,2614.85,599.88,614.50,19.31,0000 0000 0000 0000 000000
2016-04-04 00:18:17,0.31,3.79,0.00,11.77,16.49,20.63,15.09,51.09,1008.32,2075.62,2282.39,2301.81,2611.50,599.76,614.33,19.36,0000 0000 0000 0000 000000
2016-04-04 00:23:18,0.31,3.81,0.00,11.81,16.51,20.69,15.20,51.13,1008.32,2075.24,2277.72,2298.72,2608.03,599.89,614.27,19.41,0000 0000 0000 0000 000000
2016-04-04 00:28:19,0.31,3.82,0.00,11.84,16.52,20.71,15.10,51.12,1008.32,2075.10,2273.58,2295.84,2604.73,599.82,614.16,19.46,0000 0000 0000 0000 000000
2016-04-04 00:33:20,0.33,3.84,0.00,11.88,16.54,20.72,15.12,51.11,1008.32,2075.05,2269.00,2292.85,2601.38,599.89,614.05,19.51,0000 0000 0000 0000 000000
2016-04-04 00:38:22,0.26,3.85,0.00,11.93,16.56,20.82,15.18,51.11,1008.32,2075.00,2265.61,2290.29,2598.45,600.00,614.11,19.56,0000 0000 0000 0000 000000
2016-04-04 00:43:23,0.29,3.87,0.00,11.96,16.58,20.83,15.14,51.11,1008.32,2075.01,2261.92,2287.75,2595.53,600.11,614.17,19.61,0000 0000 0000 0000 000000
2016-04-04 00:48:25,0.26,3.88,0.00,11.99,16.59,20.80,15.21,51.14,1008.32,2075.00,2258.51,2285.33,2592.88,600.01,613.94,19.66,0000 0000 0000 0000 000000
2016-04-04 00:53:26,0.27,3.89,0.00,12.02,16.62,20.86,15.05,51.02,1008.31,2075.00,2255.05,2282.95,2590.21,599.98,613.81,19.71,0000 0000 0000 0000 000000
2016-04-04 00:58:28,0.23,3.91,0.00,12.07,16.64,20.89,15.15,51.08,1008.31,2075.00,2252.05,2280.78,2587.65,599.87,613.69,19.76,0000 0000 0000 0000 000000
2016-04-04 01:03:29,0.24,3.92,0.00,12.10,16.67,20.97,15.10,51.08,1008.31,2074.99,2249.11,2278.54,2585.16,599.70,613.40,19.81,0000 0000 0000 0000 000000
2016-04-04 01:08:30,0.27,3.93,0.00,12.11,16.69,20.97,15.11,51.17,1008.28,2074.95,2245.77,2276.21,2582.56,599.94,613.73,19.86,0000 0000 0000 0000 000000
2016-04-04 01:13:32,0.23,3.95,0.00,12.12,16.73,21.05,15.16,51.15,1008.24,2074.84,2242.55,2273.94,2579.96,600.25,614.04,19.91,0000 0000 0000 0000 000000
2016-04-04 01:18:33,0.21,3.96,0.00,12.17,16.76,21.07,15.15,51.23,1008.23,2074.53,2239.69,2271.67,2577.36,599.91,613.54,19.96,0000 0000 0000 0000 000000
2016-04-04 01:23:35,0.22,3.97,0.00,12.23,16.80,21.12,15.20,51.20,1008.24,2074.18,2236.67,2269.31,2574.80,600.16,613.60,20.01,0000 0000 0000 0000 000000
2016-04-04 01:28:36,0.23,3.98,0.00,12.29,16.84,21.15,15.07,51.09,1008.20,2074.04,2233.74,2267.12,2572.27,599.97,613.21,20.06,0000 0000 0000 0000 000000
2016-04-04 01:33:37,0.24,3.99,0.00,12.36,16.88,21.19,15.07,51.06,1008.16,2074.00,2230.81,2264.87,2569.73,600.18,613.34,20.11,0000 0000 0000 0000 000000
2016-04-04 01:38:38,0.25,4.00,0.00,12.41,16.92,21.26,15.17,51.14,1008.09,2074.00,2227.73,2262.55,2567.12,600.17,613.06,20.16,0000 0000 0000 0000 000000
2016-04-04 01:43:40,0.26,4.02,0.00,12.47,16.96,21.28,15.14,51.12,1008.12,2073.98,2224.58,2260.30,2564.52,600.12,612.84,20.21,0000 0000 0000 0000 000000
2016-04-04 01:48:41,0.27,4.03,0.00,12.49,17.00,21.34,15.08,51.12,1008.14,2073.92,2221.07,2257.81,2561.73,600.02,612.70,20.26,0000 0000 0000 0000 000000
2016-04-04 01:53:42,0.23,4.04,0.00,12.49,17.04,21.32,15.12,51.22,1008.15,2073.59,2217.63,2255.36,2559.09,599.99,612.82,20.31,0000 0000 0000 0000 000000
2016-04-04 01:58:44,0.24,4.05,0.00,12.57,17.09,21.41,15.06,51.33,1008.09,2073.13,2213.96,2252.86,2556.41,600.10,612.66,20.36,0000 0000 0000 0000 000000
2016-04-04 02:03:45,0.25,4.07,0.00,12.66,17.13,21.41,15.04,51.23,1007.99,2073.01,2210.73,2250.44,2553.68,599.93,612.22,20.41,0000 0000 0000 0000 000000
2016-04-04 02:08:46,0.27,4.08,0.00,12.70,17.18,21.47,15.00,51.19,1007.91,2073.00,2207.57,2248.08,2550.99,599.85,612.12,20.46,0000 0000 0000 0000 000000
2016-04-04 02:13:48,0.27,4.09,0.00,12.69,17.23,21.49,15.02,51.33,1007.89,2072.99,2204.12,2245.65,2548.24,599.66,611.90,20.51,0000 0000 0000 0000 000000
2016-04-04 02:18:48,0.27,4.11,0.00,12.71,17.28,21.51,15.10,51.37,1007.88,2072.92,2200.73,2243.28,2545.51,600.08,612.27,20.56,0000 0000 0000 0000 000000
2016-04-04 02:23:50,0.23,4.12,0.00,12.79,17.32,21.52,15.07,51.25,1007.87,2072.63,2197.43,2240.94,2543.01,600.08,612.06,20.61,0000 0000 0000 0000 000000
2016-04-04 02:28:51,0.20,4.13,0.00,12.86,17.36,21.62,15.01,51.13,1007.87,2072.14,2194.15,2238.73,2540.31,599.61,611.51,20.66,0000 0000 0000 0000 000000
2016-04-04 02:33:52,0.25,4.14,0.00,12.89,17.41,21.60,15.06,51.10,1007.86,2072.02,2190.90,2236.46,2537.61,599.96,611.69,20.71,0000 0000 0000 0000 000000
2016-04-04 02:38:54,0.29,4.16,0.00,12.86,17.45,21.67,15.05,51.13,1007.84,2072.00,2187.45,2234.06,2534.96,599.79,611.62,20.76,0000 0000 0000 0000 000000
2016-04-04 02:43:55,0.28,4.17,0.00,12.93,17.49,21.61,15.06,51.17,1007.84,2071.99,2183.82,2231.57,2532.15,600.02,611.73,20.81,0000 0000 0000 0000 000000
2016-04-04 02:48:56,0.31,4.19,0.00,13.01,17.53,21.70,15.11,51.07,1007.83,2071.96,2180.12,2229.04,2529.28,599.90,611.41,20.86,0000 0000 0000 0000 000000
2016-04-04 02:53:57,0.24,4.20,0.00,13.02,17.58,21.74,15.03,51.12,1007.83,2071.69,2176.44,2226.54,2526.48,600.13,611.65,20.91,0000 0000 0000 0000 000000
2016-04-04 02:58:58,0.22,4.21,0.00,13.05,17.62,21.76,15.06,51.22,1007.83,2071.21,2173.07,2224.19,2523.81,600.25,611.68,20.96,0000 0000 0000 0000 000000
2016-04-04 03:04:00,0.24,4.22,0.00,13.13,17.66,21.80,15.10,51.37,1007.83,2071.05,2170.02,2221.97,2521.37,600.19,611.47,21.01,0000 0000 0000 0000 000000
2016-04-04 03:09:01,0.25,4.24,0.00,13.22,17.70,21.88,15.07,51.20,1007.83,2071.00,2167.17,2219.82,2518.93,600.07,611.12,21.06,0000 0000 0000 0000 000000
2016-04-04 03:14:03,0.23,4.25,0.00,13.21,17.75,21.94,15.02,51.14,1007.83,2071.00,2164.45,2217.77,2516.57,599.66,610.72,21.11,0000 0000 0000 0000 000000
2016-04-04 03:19:04,0.23,4.26,0.00,13.21,17.79,21.93,15.14,51.24,1007.83,2070.97,2161.64,2215.68,2514.20,600.33,611.42,21.16,0000 0000 0000 0000 000000
2016-04-04 03:24:06,0.21,4.27,0.00,13.29,17.83,21.91,15.08,51.33,1007.83,2070.82,2158.90,2213.64,2511.87,600.32,611.19,21.21,0000 0000 0000 0000 000000
2016-04-04 03:29:07,0.17,4.28,0.00,13.37,17.88,22.04,15.02,51.24,1007.83,2070.18,2155.98,2211.44,2509.38,600.10,610.89,21.26,0000 0000 0000 0000 000000
2016-04-04 03:34:08,0.24,4.29,0.00,13.42,17.91,22.09,15.03,51.15,1007.83,2070.01,2153.15,2209.42,2507.11,600.18,610.77,21.31,0000 0000 0000 0000 000000
2016-04-04 03:39:09,0.23,4.30,0.00,13.42,17.95,22.11,15.09,51.28,1007.83,2070.00,2150.38,2207.39,2504.81,600.23,610.88,21.36,0000 0000 0000 0000 000000
2016-04-04 03:44:10,0.22,4.31,0.00,13.48,18.00,22.10,15.04,51.19,1007.83,2069.99,2147.80,2205.44,2502.64,600.29,610.76,21.41,0000 0000 0000 0000 000000
2016-04-04 03:49:12,0.23,4.33,0.00,13.58,18.03,22.15,15.05,51.25,1007.83,2069.98,2145.00,2203.49,2500.44,599.71,610.00,21.46,0000 0000 0000 0000 000000
2016-04-04 03:54:13,0.21,4.34,0.00,13.65,18.08,22.25,15.10,51.23,1007.83,2069.88,2142.16,2201.57,2498.25,600.13,610.27,21.51,0000 0000 0000 0000 000000
2016-04-04 03:59:15,0.18,4.35,0.00,13.67,18.12,22.35,15.01,51.30,1007.83,2069.58,2139.58,2199.72,2496.25,600.00,610.19,21.56,0000 0000 0000 0000 000000
2016-04-04 04:04:16,0.16,4.36,0.00,13.69,18.16,22.36,15.03,51.32,1007.83,2069.08,2137.15,2197.81,2494.22,600.05,610.05,21.61,0000 0000 0000 0000 000000
2016-04-04 04:09:18,0.23,4.37,0.00,13.75,18.21,22.44,15.06,51.23,1007.82,2069.01,2134.46,2195.84,2492.03,600.17,610.11,21.66,0000 0000 0000 0000 000000
2016-04-04 04:14:19,0.22,4.38,0.00,13.78,18.26,22.54,15.03,51.18,1007.83,2069.00,2131.74,2193.89,2489.77,599.95,609.98,21.71,0000 0000 0000 0000 000000
2016-04-04 04:19:20,0.23,4.39,0.00,13.75,18.31,22.53,14.99,51.23,1007.80,2068.97,2129.07,2191.90,2487.55,599.63,609.54,21.76,0000 0000 0000 0000 000000
2016-04-04 04:24:21,0.22,4.40,0.00,13.77,18.37,22.59,15.08,51.28,1007.58,2068.69,2126.13,2189.78,2485.13,600.26,610.00,21.81,0000 0000 0000 0000 000000
2016-04-04 04:29:23,0.30,4.42,0.00,13.81,18.42,22.61,15.07,51.26,1007.42,2068.20,2122.16,2187.02,2482.00,599.85,609.43,21.86,0000 0000 0000 0000 000000
2016-04-04 04:34:24,0.36,4.43,0.00,13.81,18.47,22.68,14.99,51.19,1007.44,2068.02,2117.69,2183.90,2478.53,599.89,609.45,21.91,0000 0000 0000 0000 000000
2016-04-04 04:39:26,0.37,4.45,0.00,13.80,18.52,22.66,15.00,51.24,1007.53,2068.00,2113.29,2180.84,2475.12,600.25,609.90,21.96,0000 0000 0000 0000 000000
2016-04-04 04:44:27,0.38,4.47,0.00,13.83,18.57,22.63,15.03,51.21,1007.47,2067.98,2108.89,2177.70,2471.54,599.70,609.24,22.01,0000 0000 0000 0000 000000
2016-04-04 04:49:29,0.49,4.49,0.00,13.89,18.60,22.67,15.03,51.20,1007.37,2067.90,2103.30,2173.98,2467.27,599.97,609.33,22.06,0000 0000 0000 0000 000000
2016-04-04 04:54:30,0.44,4.52,0.00,13.87,18.65,22.70,15.03,51.14,1007.39,2067.32,2097.13,2169.83,2462.59,599.95,609.32,22.11,0000 0000 0000 0000 000000
2016-04-04 04:59:32,0.50,4.54,0.00,13.88,18.69,22.76,15.01,51.23,1007.51,2067.08,2091.06,2165.71,2457.95,599.99,609.49,22.17,0000 0000 0000 0000 000000
2016-04-04 05:04:33,0.48,4.57,0.00,13.93,18.73,22.81,15.02,51.13,1007.66,2067.02,2085.35,2161.75,2453.50,599.89,609.38,22.22,0000 0000 0000 0000 000000
2016-04-04 05:09:34,0.51,4.59,0.00,13.98,18.76,22.81,14.97,51.07,1007.81,2067.00,2079.46,2157.75,2448.99,599.85,609.29,22.27,0000 0000 0000 0000 000000
2016-04-04 05:14:35,0.52,4.62,0.00,13.95,18.80,22.85,15.05,51.15,1007.83,2067.00,2073.37,2153.59,2444.42,599.89,609.41,22.32,0000 0000 0000 0000 000000
2016-04-04 05:19:37,0.49,4.64,0.00,13.97,18.84,22.92,14.94,51.13,1007.79,2066.97,2067.72,2149.56,2439.90,599.85,609.19,22.37,0000 0000 0000 0000 000000
2016-04-04 05:24:38,0.42,4.66,0.00,14.01,18.88,22.93,14.87,51.14,1007.65,2066.53,2062.21,2145.73,2435.57,599.52,608.78,22.42,0000 0000 0000 0000 000000
2016-04-04 05:29:39,0.44,4.69,0.00,14.04,18.92,22.95,14.97,51.19,1007.64,2066.09,2056.72,2141.91,2431.41,599.91,609.08,22.47,0000 0000 0000 0000 000000
2016-04-04 05:34:40,0.45,4.71,0.00,14.01,18.96,22.93,14.96,51.16,1007.62,2066.02,2051.41,2138.29,2427.42,599.84,609.08,22.52,0000 0000 0000 0000 000000
2016-04-04 05:39:42,0.39,4.73,0.00,14.06,19.00,22.97,15.00,51.24,1007.68,2066.00,2046.81,2135.07,2423.79,599.76,609.08,22.57,0000 0000 0000 0000 000000
2016-04-04 05:44:43,0.43,4.75,0.00,14.21,19.04,23.04,14.94,51.27,1007.47,2065.99,2042.24,2131.78,2420.12,599.95,608.61,22.62,0000 0000 0000 0000 000000
2016-04-04 05:49:45,0.45,4.77,0.00,14.22,19.09,23.04,14.96,51.27,1007.55,2065.98,2037.20,2128.33,2416.30,599.74,608.49,22.67,0000 0000 0000 0000 000000
2016-04-04 05:54:46,0.22,4.79,0.00,14.19,19.13,23.07,14.96,51.19,1007.71,2065.85,2033.94,2126.07,2413.70,599.83,608.65,22.72,0000 0000 0000 0000 000000
2016-04-04 05:59:47,0.18,4.80,0.00,14.21,19.17,23.09,15.01,51.24,1007.80,2065.26,2031.24,2124.05,2411.44,600.44,609.33,22.77,0000 0000 0000 0000 000000
2016-04-04 06:04:48,0.21,4.81,0.00,14.25,19.21,23.09,15.06,51.27,1007.81,2065.03,2028.59,2122.09,2409.30,600.25,609.13,22.82,0000 0000 0000 0000 000000
2016-04-04 06:09:49,0.21,4.82,0.00,14.28,19.25,23.07,14.98,51.22,1007.80,2065.00,2026.30,2120.33,2407.25,600.23,609.06,22.87,0000 0000 0000 0000 000000
2016-04-04 06:14:51,0.27,4.83,0.00,14.29,19.29,23.15,14.99,51.25,1007.82,2064.99,2023.60,2118.34,2405.03,600.09,608.74,22.92,0000 0000 0000 0000 000000
2016-04-04 06:19:52,0.27,4.85,0.00,14.34,19.33,23.23,14.93,51.32,1007.81,2064.97,2020.65,2116.20,2402.60,599.84,608.70,22.97,0000 0000 0000 0000 000000
2016-04-04 06:24:53,0.23,4.86,0.00,14.37,19.37,23.27,15.04,51.12,1007.71,2064.78,2017.83,2114.14,2400.21,600.18,608.78,23.02,0000 0000 0000 0000 000000
2016-04-04 06:29:55,0.21,4.87,0.00,14.35,19.41,23.25,14.98,51.08,1007.60,2064.22,2014.99,2112.08,2397.82,599.92,608.47,23.07,0000 0000 0000 0000 000000
2016-04-04 06:34:56,0.31,4.88,0.00,14.36,19.44,23.24,14.96,51.07,1007.71,2064.05,2011.26,2109.69,2394.96,599.79,608.45,23.12,0000 0000 0000 0000 000000
2016-04-04 06:39:57,0.34,4.90,0.00,14.44,19.47,23.25,14.99,51.13,1007.81,2064.00,2007.59,2107.16,2392.05,600.00,608.36,23.17,0000 0000 0000 0000 000000
2016-04-04 06:44:59,0.33,4.92,0.00,14.44,19.50,23.29,15.06,51.19,1007.83,2064.00,2003.88,2104.58,2389.15,600.27,608.80,23.22,0000 0000 0000 0000 000000
2016-04-04 06:50:00,0.36,4.94,0.00,14.43,19.53,23.29,14.95,50.98,1007.83,2063.98,2000.00,2101.91,2386.14,600.13,608.52,23.27,0000 0000 0000 0000 000000
2016-04-04 06:55:02,0.38,4.95,0.00,14.48,19.55,23.30,14.99,51.11,1007.83,2063.97,1995.79,2099.07,2382.96,599.89,608.35,23.32,0000 0000 0000 0000 000000
2016-04-04 07:00:03,0.34,4.97,0.00,14.59,19.57,23.39,14.99,51.23,1007.83,2063.80,1991.48,2096.33,2379.86,599.95,608.16,23.37,0000 0000 0000 0000 000000
2016-04-04 07:05:04,0.33,4.99,0.00,14.58,19.59,23.42,14.96,51.22,1007.83,2063.33,1986.98,2093.52,2376.72,600.08,608.27,23.42,0000 0000 0000 0000 000000
2016-04-04 07:10:05,0.37,5.01,0.00,14.54,19.62,23.46,15.03,51.18,1007.83,2063.16,1982.79,2090.63,2373.45,599.92,608.18,23.47,0000 0000 0000 0000 000000
2016-04-04 07:15:07,0.40,5.03,0.00,14.60,19.64,23.50,15.01,51.11,1007.83,2063.03,1978.40,2087.56,2370.03,599.93,608.12,23.52,0000 0000 0000 0000 000000
2016-04-04 07:20:08,0.44,5.05,0.00,14.68,19.66,23.49,15.00,51.17,1007.83,2063.00,1973.65,2084.32,2366.51,600.07,608.03,23.57,0000 0000 0000 0000 000000
2016-04-04 07:25:09,0.61,5.08,0.00,14.68,19.68,23.52,14.98,51.05,1007.83,2063.00,1967.61,2079.93,2361.65,600.17,608.10,23.62,0000 0000 0000 0000 000000
2016-04-04 07:30:11,0.55,5.10,0.00,14.67,19.70,23.58,15.00,51.21,1007.83,2063.00,1961.77,2075.66,2356.88,600.27,608.17,23.67,0000 0000 0000 0000 000000
2016-04-04 07:35:12,0.49,5.13,0.00,14.72,19.72,23.55,15.00,51.26,1007.83,2062.98,1956.49,2071.83,2352.64,599.94,607.89,23.72,0000 0000 0000 0000 000000
2016-04-04 07:40:13,0.42,5.15,0.00,14.77,19.73,23.56,14.95,51.07,1007.83,2062.97,1951.91,2068.64,2349.01,599.87,607.58,23.77,0000 0000 0000 0000 000000
2016-04-04 07:45:15,0.49,5.18,0.00,14.75,19.75,23.61,15.03,50.96,1007.83,2062.94,1946.97,2065.12,2345.02,600.30,608.15,23.82,0000 0000 0000 0000 000000
2016-04-04 07:50:16,0.45,5.20,0.00,14.76,19.77,23.62,14.95,51.15,1007.83,2062.81,1941.97,2061.62,2341.10,599.80,607.59,23.87,0000 0000 0000 0000 000000
2016-04-04 07:55:17,0.44,5.22,0.00,14.81,19.79,23.69,14.99,51.11,1007.83,2062.49,1936.98,2058.01,2337.07,599.75,607.36,23.92,0000 0000 0000 0000 000000
2016-04-04 08:00:18,0.49,5.25,0.00,14.88,19.81,23.70,15.05,51.22,1007.83,2062.29,1931.96,2054.31,2332.89,600.59,608.14,23.97,0000 0000 0000 0000 000000
2016-04-04 08:05:20,0.50,5.27,0.00,14.85,19.83,23.64,14.96,51.10,1007.83,2062.12,1926.75,2050.46,2328.57,599.99,607.64,24.02,0000 0000 0000 0000 000000
2016-04-04 08:10:21,0.49,5.30,0.00,14.84,19.85,23.70,15.01,51.07,1007.83,2062.02,1921.50,2046.75,2324.24,600.09,607.75,24.07,0000 0000 0000 0000 000000
2016-04-04 08:15:23,0.53,5.33,0.00,14.93,19.87,23.71,14.94,50.91,1007.83,2062.00,1916.19,2042.96,2319.86,600.07,607.63,24.12,0000 0000 0000 0000 000000
2016-04-04 08:20:24,0.55,5.35,0.00,15.00,19.88,23.75,14.89,51.03,1007.83,2062.00,1910.76,2038.95,2315.36,599.93,607.25,24.17,0000 0000 0000 0000 000000
2016-04-04 08:25:25,0.55,5.38,0.00,14.98,19.90,23.84,14.92,50.99,1007.83,2062.00,1905.22,2034.85,2310.77,599.93,607.25,24.22,0000 0000 0000 0000 000000
2016-04-04 08:30:26,0.56,5.41,0.80,14.98,19.92,23.93,15.00,51.03,1007.83,2062.00,1899.76,2030.75,2306.18,600.27,607.58,24.27,0000 0000 0000 0000 000000
2016-04-04 08:35:28,0.52,5.43,1.00,15.06,19.94,24.03,15.02,50.99,1007.83,2061.96,1894.44,2026.78,2301.89,600.41,607.50,24.32,0000 0000 0000 0000 000000
2016-04-04 08:40:29,0.48,5.46,1.00,15.13,19.95,24.14,14.97,51.00,1007.83,2061.97,1889.58,2023.28,2297.98,600.11,607.18,24.37,0000 0000 0000 0000 000000
2016-04-04 08:45:31,0.45,5.48,1.00,15.09,19.97,24.23,14.93,50.77,1007.83,2061.92,1884.90,2019.99,2294.26,600.09,607.17,24.42,0000 0000 0000 0000 000000
2016-04-04 08:50:32,0.42,5.51,1.00,15.06,19.99,24.23,14.93,50.77,1007.83,2061.74,1880.28,2016.87,2290.70,600.17,607.30,24.47,0000 0000 0000 0000 000000
2016-04-04 08:55:33,0.37,5.53,1.00,15.10,20.00,24.32,15.02,50.86,1007.84,2061.35,1875.87,2013.80,2287.35,599.99,607.02,24.52,0000 0000 0000 0000 000000
2016-04-04 09:00:35,0.40,5.54,0.20,15.14,20.02,24.32,14.95,50.76,1007.84,2061.12,1871.51,2010.91,2284.09,599.92,606.90,24.57,0000 0000 0000 0000 000000
2016-04-04 09:05:36,0.43,5.57,0.00,15.07,20.03,24.38,14.98,50.90,1007.85,2061.13,1867.16,2008.02,2280.82,600.13,607.28,24.62,0000 0000 0000 0000 000000
2016-04-04 09:10:37,0.40,5.59,0.00,15.02,20.04,24.27,15.00,50.91,1007.90,2061.06,1862.95,2005.17,2277.65,600.09,607.38,24.67,0000 0000 0000 0000 000000
2016-04-04 09:15:38,0.41,5.61,0.00,15.05,20.06,24.17,15.00,51.01,1007.89,2061.02,1858.75,2002.31,2274.44,600.31,607.54,24.72,0000 0000 0000 0000 000000
2016-04-04 09:20:40,0.40,5.63,0.00,15.09,20.07,24.20,15.02,50.94,1007.86,2061.01,1854.82,1999.53,2271.28,600.34,607.46,24.77,0000 0000 0000 0000 000000
2016-04-04 09:25:41,0.40,5.65,0.00,15.00,20.07,24.11,14.96,50.86,1007.84,2061.00,1850.81,1996.72,2268.06,599.90,607.26,24.82,0000 0000 0000 0000 000000
2016-04-04 09:30:43,0.40,5.67,0.00,14.96,20.08,24.14,14.96,50.96,1007.84,2061.00,1846.82,1993.99,2265.01,600.41,607.73,24.87,0000 0000 0000 0000 000000
2016-04-04 09:35:44,0.33,5.69,0.00,14.97,20.09,24.17,14.98,50.88,1007.92,2061.00,1843.35,1991.58,2262.33,600.04,607.39,24.92,0000 0000 0000 0000 000000
2016-04-04 09:40:45,0.36,5.71,0.00,15.02,20.09,24.16,14.98,50.88,1007.98,2061.00,1839.83,1989.14,2259.59,600.40,607.66,24.97,0000 0000 0000 0000 000000
2016-04-04 09:45:47,0.35,5.72,0.00,14.94,20.09,24.17,14.96,51.02,1008.01,2061.00,1836.32,1986.81,2256.94,600.02,607.46,25.02,0000 0000 0000 0000 000000
2016-04-04 09:50:48,0.35,5.74,0.00,14.90,20.09,24.17,14.93,50.97,1008.09,2061.00,1832.68,1984.45,2254.25,599.92,607.64,25.07,0000 0000 0000 0000 000000
2016-04-04 09:55:49,0.37,5.76,0.00,14.90,20.09,24.13,14.98,50.94,1008.17,2061.00,1829.04,1982.14,2251.48,600.13,607.81,25.12,0000 0000 0000 0000 000000
2016-04-04 10:00:50,0.36,5.78,0.00,14.96,20.09,24.13,14.92,50.86,1008.13,2060.99,1825.32,1979.70,2248.68,599.75,607.44,25.17,0000 0000 0000 0000 000000
2016-04-04 10:05:51,0.42,5.80,0.00,14.88,20.09,24.12,14.96,50.86,1008.06,2060.99,1821.26,1977.04,2245.63,600.18,607.77,25.22,0000 0000 0000 0000 000000
2016-04-04 10:10:53,0.42,5.82,0.00,14.82,20.09,24.19,14.92,50.98,1008.01,2060.99,1817.22,1974.29,2242.64,600.15,607.98,25.28,0000 0000 0000 0000 000000
2016-04-04 10:15:54,0.45,5.84,0.00,14.85,20.08,24.18,14.92,50.97,1007.94,2060.99,1812.86,1971.34,2239.36,599.91,607.58,25.33,0000 0000 0000 0000 000000
2016-04-04 10:20:55,0.42,5.86,0.00,14.88,20.07,24.17,15.01,51.07,1007.90,2060.99,1808.51,1968.56,2236.27,600.42,607.98,25.38,0000 0000 0000 0000 000000
2016-04-04 10:25:57,0.43,5.89,0.00,14.81,20.07,24.12,15.06,50.93,1007.88,2060.99,1804.24,1965.66,2233.07,600.21,607.97,25.43,0000 0000 0000 0000 000000
2016-04-04 10:30:58,0.38,5.91,0.00,14.74,20.05,24.14,15.02,51.00,1007.87,2060.99,1800.48,1963.17,2230.22,600.13,607.92,25.48,0000 0000 0000 0000 000000
2016-04-04 10:35:59,0.37,5.92,0.00,14.75,20.04,24.09,15.02,50.87,1007.86,2060.99,1796.85,1960.81,2227.50,599.95,607.78,25.53,0000 0000 0000 0000 000000
2016-04-04 10:41:01,0.38,5.94,0.00,14.81,20.03,24.13,14.98,50.98,1007.85,2060.99,1793.14,1958.34,2224.73,599.72,607.44,25.58,0000 0000 0000 0000 000000
2016-04-04 10:46:02,0.40,5.96,0.00,14.75,20.02,24.11,15.01,50.95,1007.89,2060.99,1789.36,1955.79,2221.86,600.00,607.91,25.63,0000 0000 0000 0000 000000
2016-04-04 10:51:04,0.38,5.98,0.00,14.68,19.99,24.12,15.02,51.08,1007.91,2061.00,1785.57,1953.33,2219.11,599.93,607.94,25.68,0000 0000 0000 0000 000000
2016-04-04 10:56:05,0.36,6.00,0.00,14.69,19.98,24.12,15.01,50.99,1007.90,2061.01,1782.06,1951.08,2216.54,599.75,607.76,25.73,0000 0000 0000 0000 000000
2016-04-04 11:01:06,0.37,6.02,0.00,14.71,19.97,24.04,15.03,51.10,1007.85,2061.01,1778.39,1948.75,2213.94,600.22,608.18,25.78,0000 0000 0000 0000 000000
2016-04-04 11:06:08,0.34,6.04,0.00,14.66,19.95,23.99,15.03,51.09,1007.83,2061.04,1774.85,1946.50,2211.44,600.31,608.32,25.83,0000 0000 0000 0000 000000
2016-04-04 11:11:09,0.34,6.06,0.00,14.60,19.93,24.04,15.01,51.00,1007.83,2061.07,1771.45,1944.47,2209.17,600.38,608.53,25.88,0000 0000 0000 0000 000000
2016-04-04 11:16:10,0.34,6.07,0.00,14.59,19.92,24.05,15.01,51.05,1007.83,2061.22,1768.28,1942.59,2206.96,600.03,608.19,25.93,0000 0000 0000 0000 000000
2016-04-04 11:21:11,0.35,6.09,0.00,14.59,19.90,24.03,15.03,51.09,1007.83,2061.42,1765.10,1940.57,2204.68,600.11,608.24,25.98,0000 0000 0000 0000 000000
2016-04-04 11:26:13,0.36,6.11,0.00,14.57,19.89,23.98,15.03,50.93,1007.83,2061.45,1761.68,1938.31,2202.15,600.13,608.31,26.03,0000 0000 0000 0000 000000
2016-04-04 11:31:14,0.42,6.13,0.00,14.50,19.87,24.00,15.03,50.80,1007.83,2061.64,1757.97,1936.01,2199.49,599.99,608.29,26.08,0000 0000 0000 0000 000000
2016-04-04 11:36:15,0.38,6.15,0.00,14.49,19.85,23.92,15.03,50.95,1007.83,2061.80,1754.42,1933.69,2196.86,600.06,608.39,26.13,0000 0000 0000 0000 000000
2016-04-04 11:41:16,0.25,6.16,0.00,14.53,19.83,23.95,14.96,50.80,1007.83,2061.90,1751.90,1931.92,2194.80,599.81,608.08,26.18,0000 0000 0000 0000 000000
2016-04-04 11:46:18,0.17,6.17,0.00,14.53,19.81,23.95,14.94,50.74,1007.83,2061.97,1750.09,1930.88,2193.61,599.62,607.91,26.23,0000 0000 0000 0000 000000
2016-04-04 11:51:19,0.22,6.18,0.00,14.49,19.79,23.79,15.03,50.89,1007.83,2061.99,1748.10,1929.67,2192.21,600.20,608.57,26.28,0000 0000 0000 0000 000000
2016-04-04 11:56:20,0.18,6.19,0.00,14.40,19.76,23.80,15.03,50.81,1007.82,2061.99,1746.24,1928.55,2190.85,599.93,608.57,26.33,0000 0000 0000 0000 000000
2016-04-04 12:01:22,0.14,6.20,0.00,14.38,19.73,23.83,15.04,50.75,1007.82,2061.99,1744.89,1927.63,2189.73,600.20,608.75,26.38,0000 0000 0000 0000 000000
2016-04-04 12:06:23,0.21,6.21,0.00,14.40,19.71,23.87,15.02,50.74,1007.83,2061.99,1743.16,1926.25,2188.20,600.00,608.37,26.43,0000 0000 0000 0000 000000
2016-04-04 12:11:24,0.27,6.22,0.00,14.39,19.68,23.80,14.98,50.84,1007.82,2062.00,1740.63,1924.69,2186.46,599.99,608.52,26.48,0000 0000 0000 0000 000000
2016-04-04 12:16:26,0.18,6.24,0.00,14.31,19.65,23.71,15.03,50.95,1007.80,2062.00,1738.82,1923.50,2184.95,600.33,608.93,26.53,0000 0000 0000 0000 000000
2016-04-04 12:21:27,0.16,6.25,0.00,14.30,19.63,23.67,15.00,50.83,1007.77,2062.03,1737.45,1922.44,2183.77,599.61,608.30,26.58,0000 0000 0000 0000 000000
2016-04-04 12:26:29,0.13,6.25,0.00,14.30,19.60,23.67,14.92,50.68,1007.70,2062.05,1736.05,1921.60,2182.78,599.50,608.13,26.63,0000 0000 0000 0000 000000
2016-04-04 12:31:30,0.16,6.26,0.00,14.28,19.57,23.55,14.99,50.65,1007.65,2062.28,1734.79,1920.87,2181.78,600.03,608.67,26.68,0000 0000 0000 0000 000000
2016-04-04 12:36:31,0.21,6.27,0.00,14.22,19.53,23.46,14.96,50.69,1007.64,2062.64,1733.26,1920.00,2180.71,599.76,608.41,26.73,0000 0000 0000 0000 000000
2016-04-04 12:41:33,0.18,6.28,0.00,14.20,19.50,23.55,15.02,50.85,1007.69,2062.91,1731.73,1919.09,2179.66,600.22,609.10,26.78,0000 0000 0000 0000 000000
2016-04-04 12:46:34,0.16,6.29,0.00,14.21,19.47,23.54,15.07,50.90,1007.68,2062.99,1730.22,1918.13,2178.57,600.45,609.33,26.83,0000 0000 0000 0000 000000
2016-04-04 12:51:35,0.17,6.30,0.00,14.18,19.43,23.50,15.04,50.96,1007.58,2062.99,1728.59,1917.22,2177.45,599.93,608.83,26.88,0000 0000 0000 0000 000000
2016-04-04 12:56:36,0.12,6.30,0.00,14.11,19.39,23.47,14.93,50.94,1007.50,2062.99,1727.46,1916.38,2176.55,599.53,608.52,26.93,0000 0000 0000 0000 000000